Theta_e
306 297 292 292 294 295 296 297 298 296 295 294 295 294 291 291 293 295 295 296 297 293 291 293 294 294 295 297 298 298 298 298 298 298 299 299 300 301 300 301 301 302 304 307 308 310 310 311 312 311 312 313 314 314 315 315 315 315 313 312 312 313 314 313 311 311 310 309 308 309 310 309 309 310 310 310 312 315 315 316 317 320 321 322 323 321
301 295 294 296 297 298 298 297 296 296 294 294 293 293 290 295 290 296 295 296 296 293 290 292 292 293 294 296 297 298 298 298 299 299 299 299 300 301 301 302 302 303 306 309 308 309 309 309 310 310 310 310 311 312 313 313 314 314 313 312 312 313 313 312 312 311 310 310 309 310 311 312 312 309 309 308 309 311 311 313 314 317 320 321 321 320
294 291 296 298 299 298 297 296 296 294 296 295 292 292 292 291 294 295 295 296 297 294 290 291 290 293 295 296 297 297 298 300 300 300 299 299 299 300 302 302 303 303 304 308 307 308 308 309 309 308 308 310 311 311 311 312 312 311 311 312 312 312 311 310 310 310 309 309 310 311 312 313 310 307 306 307 306 306 307 310 312 313 315 319 318 318
290 293 297 299 298 296 295 295 295 297 297 293 292 290 289 295 293 289 293 295 295 293 290 290 290 293 296 297 297 299 299 300 301 301 301 301 300 300 301 301 302 303 304 308 306 307 307 308 308 307 307 308 309 309 309 310 311 311 310 311 311 310 310 309 309 308 308 309 310 309 310 312 308 304 302 301 301 303 306 306 308 309 311 314 315 315
292 297 299 298 298 297 294 295 294 292 290 294 296 293 292 294 294 291 291 293 295 295 295 292 291 291 294 294 295 298 300 299 300 300 300 301 303 303 303 304 304 303 303 305 307 306 306 306 306 306 306 307 308 308 309 309 311 311 310 310 310 309 308 308 307 308 308 305 303 303 303 303 303 303 302 302 301 302 304 304 305 307 307 311 313 314
294 297 301 296 299 296 296 292 293 295 288 291 295 295 294 294 292 294 295 294 289 288 293 294 282 284 293 294 296 298 297 297 299 299 299 300 301 301 301 302 303 306 304 303 304 306 306 306 305 305 305 306 307 308 309 309 310 310 309 309 309 308 307 308 308 308 305 305 303 302 303 302 304 303 301 302 303 301 302 303 304 303 304 308 311 312
294 297 300 297 296 296 296 295 295 296 290 289 290 296 297 294 295 294 294 291 283 281 292 294 284 281 287 290 292 293 295 296 297 298 299 300 301 300 302 303 303 304 304 306 306 305 305 305 305 305 305 306 306 307 309 309 309 309 309 309 309 307 307 308 308 307 304 304 304 305 305 304 305 305 304 305 306 304 303 303 302 302 302 304 308 310
295 295 296 297 297 295 295 290 296 295 290 287 295 297 297 296 293 294 293 292 288 293 294 293 291 281 283 289 293 295 294 294 295 297 298 300 300 301 301 304 303 304 304 305 303 303 304 305 305 305 305 305 306 307 309 309 309 308 308 308 308 306 306 307 308 305 305 304 304 305 305 305 305 306 304 305 304 303 301 301 300 300 300 301 304 307
296 294 296 295 295 292 292 296 298 297 293 292 295 299 296 297 295 294 292 290 289 286 282 288 292 283 282 288 294 294 291 292 293 294 295 297 297 298 302 304 303 304 304 305 303 302 302 304 304 304 305 305 307 307 308 308 308 308 308 308 307 306 306 306 306 303 304 305 305 306 306 306 307 308 306 304 303 300 299 299 297 298 299 300 300 303
296 297 297 298 294 291 294 293 297 299 291 294 297 299 298 297 296 294 289 288 286 283 281 286 291 281 284 289 288 291 291 291 292 294 297 297 298 300 302 301 302 302 301 301 303 302 302 303 303 304 305 305 306 307 308 308 308 307 307 307 306 305 305 304 304 303 304 305 305 306 307 307 306 307 305 303 300 299 299 298 296 297 297 298 299 300
296 297 296 298 295 297 293 294 295 296 297 298 298 295 294 292 290 289 288 285 283 279 281 290 291 288 280 288 288 289 291 294 293 295 296 299 302 304 303 302 301 301 302 300 300 301 301 301 303 303 304 304 305 306 307 307 307 306 306 306 305 305 305 303 303 302 303 305 306 306 307 307 307 303 302 300 298 297 297 297 295 295 296 296 297 298
297 296 296 297 296 297 296 293 297 298 297 298 293 290 290 287 287 285 284 285 279 278 286 290 291 289 278 281 292 294 295 295 295 293 293 296 300 303 301 301 301 300 301 300 299 299 299 300 301 301 302 303 305 306 306 305 306 305 305 305 304 304 304 303 302 302 302 304 305 306 307 307 306 302 301 300 298 297 297 297 295 294 294 294 296 297
291 293 295 295 297 297 294 292 292 295 296 296 291 288 282 281 282 279 282 278 278 277 282 284 290 286 285 289 291 294 295 294 295 295 295 297 299 304 301 299 299 300 300 300 300 299 299 299 300 300 301 303 304 305 305 305 304 304 304 304 303 303 303 302 301 301 302 303 305 306 307 308 307 303 302 301 299 298 299 297 295 294 294 294 294 295
288 294 294 294 295 296 297 288 285 284 290 292 288 283 280 276 276 273 277 281 281 283 283 285 286 283 288 290 293 294 295 296 297 297 300 300 299 299 303 301 301 300 300 300 301 300 299 299 300 300 301 302 303 304 305 304 304 303 303 303 303 302 303 302 301 301 302 303 304 305 306 307 307 304 302 301 300 299 299 298 296 295 295 294 295 295
280 282 290 292 288 296 295 293 291 289 290 291 292 290 283 280 276 273 277 275 277 279 283 285 281 279 279 285 294 295 295 295 297 297 299 300 300 299 302 301 301 300 299 300 301 301 301 301 301 301 301 302 303 304 304 304 303 302 302 302 302 301 302 301 300 300 301 303 304 304 305 304 303 303 303 302 301 299 298 298 297 295 296 295 296 296
285 285 293 297 295 296 294 298 298 294 290 290 292 294 286 283 287 278 281 282 278 280 278 280 280 283 287 293 294 296 295 296 297 298 297 297 299 300 301 302 302 301 301 302 301 301 302 302 301 301 301 302 303 304 304 303 303 302 302 302 302 302 302 302 299 299 300 302 303 304 304 304 301 300 301 301 299 299 299 298 297 296 296 296 296 296
285 282 293 296 295 294 295 299 298 297 283 288 291 284 288 293 290 284 281 281 280 278 278 282 283 287 289 293 295 296 295 295 295 296 296 296 298 298 299 300 299 301 301 301 301 302 302 301 301 302 301 301 303 303 303 303 303 302 302 301 301 301 301 302 299 299 299 301 301 302 303 303 300 299 299 300 299 298 298 298 298 297 297 297 297 296
284 286 289 291 291 294 292 295 298 295 298 290 283 288 294 295 292 285 278 280 278 276 278 280 280 283 281 282 291 290 291 293 293 294 297 297 296 297 299 299 300 301 301 301 301 302 302 302 301 301 301 302 303 303 303 303 303 303 302 302 301 301 301 301 299 298 299 300 300 301 301 302 301 299 299 300 299 299 298 297 297 297 295 296 296 296
293 282 286 290 291 293 295 295 295 297 295 292 288 298 288 281 280 283 280 275 273 273 276 279 281 282 285 286 288 288 289 291 293 295 295 296 296 297 298 299 300 300 302 302 301 301 301 300 300 301 301 302 303 303 303 303 303 303 302 302 302 301 301 301 300 298 299 300 300 300 300 301 301 300 299 299 300 298 297 297 297 296 295 294 293 294
293 283 284 288 290 293 293 291 284 286 294 296 296 292 295 288 282 281 281 280 280 275 273 277 278 280 288 288 289 291 292 293 294 294 294 296 297 298 298 300 300 301 302 302 301 301 301 300 300 300 301 301 302 302 303 303 302 302 302 301 301 301 301 301 300 297 298 299 299 298 298 299 300 300 300 299 298 297 296 296 296 295 293 292 292 292
288 288 280 285 290 291 283 288 286 288 285 284 285 284 288 285 288 284 285 281 279 275 275 275 277 282 288 292 292 293 294 294 295 295 295 296 297 298 299 300 301 302 302 303 302 301 300 300 299 299 300 300 300 301 302 302 302 302 302 301 301 300 300 300 300 298 297 298 298 297 296 297 297 298 299 298 297 296 295 295 294 294 293 291 290 290
285 283 282 282 283 283 286 293 292 293 292 290 289 287 290 286 283 278 279 288 283 281 276 277 277 285 291 295 295 294 294 294 296 296 297 297 298 299 299 300 303 303 302 303 301 300 299 298 298 297 298 298 299 300 301 302 301 301 301 301 300 300 300 300 299 297 296 296 297 297 296 296 295 296 297 297 295 294 294 293 292 292 290 289 289 290
293 286 283 281 284 287 290 295 295 295 295 293 291 288 291 289 286 281 277 279 283 282 284 280 278 284 292 294 295 295 296 296 296 296 298 298 298 299 301 302 304 304 305 304 302 300 299 298 297 298 298 298 299 300 299 300 301 301 300 300 300 300 299 300 300 298 296 296 295 296 295 294 293 293 294 294 293 292 292 291 291 291 290 289 288 289
296 285 283 284 289 291 291 294 294 294 294 291 291 289 288 287 288 285 282 282 281 281 281 280 277 284 292 294 295 296 297 297 298 298 297 298 301 302 302 302 302 303 302 301 299 298 298 297 295 296 297 298 299 299 299 300 300 300 300 300 299 299 299 299 299 296 295 294 293 292 292 293 292 292 292 293 293 292 291 291 290 290 290 289 288 288
285 284 285 280 280 283 285 288 287 290 291 286 286 291 292 293 290 286 285 285 283 282 283 281 277 283 291 287 292 295 295 296 297 297 299 298 299 301 301 302 301 301 300 299 299 298 296 294 295 296 297 297 298 298 299 299 299 299 299 299 299 299 298 298 298 295 294 292 291 291 291 291 292 292 291 292 292 292 291 291 290 289 289 288 287 287
289 287 286 280 277 276 275 278 279 282 285 286 286 289 292 291 290 286 283 283 281 284 285 282 282 289 291 290 293 294 294 294 295 295 296 297 298 301 301 300 300 300 300 299 297 296 296 296 295 294 295 297 297 298 299 299 299 299 298 299 298 298 297 297 295 294 293 292 292 291 291 291 291 291 291 291 291 290 291 290 290 289 288 287 287 287
286 290 289 286 284 282 284 284 289 290 284 283 286 288 289 291 292 290 285 283 282 285 283 284 286 288 289 290 291 289 290 293 294 295 296 296 295 296 298 300 299 299 299 300 300 298 296 294 295 296 295 296 296 297 298 298 298 298 298 297 297 298 297 296 294 293 293 292 292 292 291 291 291 291 291 290 290 290 289 289 289 289 288 287 287 286
287 287 289 289 288 289 289 287 292 291 287 288 287 287 290 290 290 289 286 285 289 283 281 287 289 286 289 291 292 292 292 293 295 294 296 295 296 298 297 298 300 299 298 298 298 298 299 298 295 294 295 295 296 296 296 297 298 298 297 297 297 296 296 296 294 292 292 292 292 292 292 292 291 290 290 289 289 289 288 288 288 288 288 287 287 286
287 286 290 290 288 290 290 291 293 291 290 289 289 288 288 289 289 287 288 290 289 285 283 288 288 287 290 293 292 294 295 296 296 297 297 298 298 298 298 298 299 298 297 296 297 298 298 297 297 296 295 294 293 293 294 295 296 295 295 295 295 295 295 294 293 292 292 291 292 292 292 291 291 290 289 288 288 287 287 287 287 287 287 287 287 287
289 287 289 290 288 290 290 291 292 291 290 289 289 290 290 289 289 290 290 291 290 288 290 290 290 290 293 294 294 294 297 297 297 298 297 297 297 298 297 298 297 297 297 297 298 299 299 300 299 297 296 292 293 294 293 295 296 296 296 295 294 295 295 293 293 292 291 292 292 291 291 291 290 290 289 288 287 287 286 286 286 286 286 286 286 286
290 287 292 289 287 287 290 290 290 290 290 288 290 291 291 291 290 290 290 290 290 290 291 291 290 289 295 297 296 297 297 297 298 297 299 298 297 297 297 297 298 299 298 299 299 298 299 299 299 298 296 295 294 294 295 296 296 296 295 295 294 295 294 293 293 292 291 292 292 291 291 289 289 289 288 288 287 286 286 285 286 285 285 285 285 285
290 286 287 287 285 285 288 288 287 287 287 287 287 289 291 291 288 289 288 291 289 287 289 289 287 288 294 297 297 297 296 296 297 298 299 299 298 297 298 299 298 298 299 299 299 299 299 298 298 298 297 296 296 295 294 295 296 294 295 296 295 295 293 293 293 292 292 291 291 291 290 289 288 287 287 287 287 286 285 285 285 285 285 285 285 285
287 286 286 285 284 284 288 288 285 286 286 285 286 289 291 291 293 293 293 293 293 293 288 286 287 294 296 297 294 295 296 296 297 299 298 298 297 298 298 299 300 299 300 300 299 299 299 299 299 299 299 298 297 296 296 296 294 294 295 295 296 294 293 294 293 292 291 291 290 290 290 289 288 287 287 287 287 286 285 285 285 285 285 285 285 285
287 287 286 287 283 284 287 286 285 284 279 281 293 295 294 291 292 290 291 293 294 294 292 294 294 296 296 296 295 295 296 297 299 300 301 300 299 296 298 299 299 300 300 299 299 299 299 300 300 300 299 300 299 298 298 295 295 296 296 295 293 293 294 294 292 292 291 290 290 289 289 289 288 287 287 286 286 286 285 285 285 285 285 285 285 284
286 286 285 287 284 284 286 285 283 278 280 291 296 297 297 296 295 293 294 295 296 296 296 294 295 296 297 298 298 298 299 300 300 300 301 299 299 299 299 300 301 300 299 299 299 299 299 299 299 299 297 297 297 297 295 293 295 294 292 293 293 294 293 293 292 291 291 290 289 289 288 288 288 287 286 286 286 286 285 285 285 285 285 285 284 284
286 286 286 285 285 285 283 283 277 279 287 291 292 294 296 296 295 293 291 294 295 296 296 295 296 298 298 298 299 300 300 300 300 300 300 300 298 301 301 301 301 299 300 301 300 299 297 296 296 296 297 296 294 292 293 295 294 292 293 292 293 292 293 292 291 290 290 290 289 288 288 288 288 287 286 285 285 286 285 285 285 285 285 285 285 284
290 287 286 283 287 281 283 283 282 289 288 290 290 289 289 289 289 289 286 290 296 297 296 295 296 297 298 298 299 299 298 296 296 299 297 298 299 300 301 300 300 300 300 299 298 298 297 295 294 293 293 294 293 291 293 291 291 292 291 291 292 291 291 290 290 290 290 289 289 288 288 288 287 286 285 285 285 285 285 285 285 285 285 284 284 284
293 287 287 284 283 286 283 281 282 282 279 285 291 293 296 297 297 296 292 289 296 296 297 297 296 297 297 297 297 297 295 293 292 294 297 296 298 298 296 297 296 295 294 292 291 290 290 291 291 291 294 294 292 289 289 288 290 290 290 290 290 290 290 289 290 290 289 289 288 288 287 287 287 286 285 285 284 284 285 285 285 285 285 284 283 283
293 292 288 286 284 284 282 280 280 279 282 288 292 293 295 297 297 295 290 286 295 295 295 297 296 296 296 296 296 295 291 289 291 294 295 293 292 290 293 291 291 292 291 291 292 292 289 288 290 290 291 291 291 289 288 288 289 290 290 290 290 290 289 289 290 289 289 289 288 288 287 287 287 286 285 285 284 285 285 285 285 284 284 284 284 283
288 288 287 283 283 285 283 281 279 284 284 287 288 288 288 290 296 291 283 284 293 292 295 296 295 295 295 295 292 291 290 288 291 294 292 291 292 291 292 292 292 291 290 288 288 288 288 287 289 289 289 289 289 287 287 287 288 288 289 289 288 288 289 290 290 288 288 287 287 287 287 287 287 286 285 284 283 284 284 284 284 284 283 283 283 283
285 286 286 282 283 284 284 283 284 285 289 290 288 288 291 292 293 285 281 287 292 290 290 293 295 297 297 294 291 291 292 295 295 292 289 289 291 291 288 288 289 289 289 288 288 287 286 286 287 288 288 288 287 286 285 286 287 288 288 287 287 288 289 288 286 286 287 286 287 287 287 286 286 285 285 285 284 284 284 284 284 283 283 282 283 282
286 286 285 286 284 283 284 282 283 286 288 290 286 291 293 292 284 284 292 289 290 291 289 290 292 291 293 292 291 292 294 291 290 290 290 290 291 290 289 289 290 290 288 288 287 286 286 285 286 286 286 285 287 285 285 285 287 287 286 286 287 288 286 286 286 286 286 286 286 286 286 285 285 285 285 284 284 284 284 284 284 283 283 283 282 282
286 284 282 283 285 285 284 282 281 278 288 292 292 290 292 287 289 292 289 289 291 290 291 290 291 291 294 292 290 291 289 289 288 290 289 288 289 289 289 289 289 288 289 289 290 286 286 287 288 287 286 285 285 285 284 284 286 286 285 286 287 285 285 284 285 286 286 285 284 285 285 284 284 284 284 283 283 283 284 284 283 283 282 282 282 281
289 284 284 286 288 282 282 280 281 288 288 293 294 287 290 295 294 290 294 291 290 288 287 289 289 290 290 291 290 288 287 288 287 287 288 289 288 287 288 287 287 287 288 287 286 286 286 286 286 286 285 284 284 283 283 284 285 285 285 286 284 283 283 284 284 284 284 284 284 283 283 283 283 283 282 283 283 283 283 283 282 282 282 281 281 280
290 287 287 284 288 287 284 286 288 289 288 293 294 292 294 297 297 293 294 293 291 290 288 290 289 288 289 288 289 288 288 287 289 288 288 290 289 289 288 288 288 288 288 288 288 286 285 285 285 285 285 283 282 282 282 282 284 284 284 283 283 282 284 284 284 284 283 283 282 282 282 282 282 282 282 282 282 282 283 282 282 281 281 281 281 280
288 288 286 286 285 289 291 291 292 288 288 288 291 292 294 294 292 294 293 293 291 291 290 291 290 288 287 287 288 286 288 288 288 289 288 288 289 289 288 287 286 286 286 285 286 286 285 283 283 283 284 283 281 281 282 281 282 284 284 282 282 282 283 283 283 283 282 281 282 281 281 281 281 282 283 283 283 283 283 282 282 281 281 280 280 280
287 287 286 284 284 285 282 290 291 291 289 288 291 292 290 291 291 291 291 291 291 290 289 288 288 290 287 287 289 290 289 288 288 290 290 290 290 290 289 289 288 287 287 287 287 285 285 283 284 285 284 284 281 280 280 281 280 281 281 281 281 281 282 283 283 283 282 282 282 281 283 283 283 283 282 283 283 283 283 283 282 281 281 280 280 280
283 287 282 283 284 285 285 288 287 288 289 289 291 291 292 292 292 291 292 290 290 288 288 288 288 288 287 288 288 288 289 288 288 290 290 290 291 290 290 290 290 289 287 286 286 285 283 284 284 285 284 284 282 280 279 280 280 280 281 280 281 281 282 282 283 283 282 282 283 283 283 283 281 282 282 282 282 282 282 282 282 281 281 280 281 280
285 286 277 283 281 283 285 286 287 288 288 289 288 288 290 291 290 290 290 289 288 288 290 289 287 289 288 289 287 286 288 289 289 289 289 290 289 289 290 289 288 288 287 285 283 283 285 284 284 284 283 283 281 280 279 279 279 280 280 280 281 281 281 282 283 284 284 284 284 283 283 283 282 283 282 282 282 282 282 282 281 281 281 282 283 282
284 281 283 283 280 281 281 284 286 283 283 286 288 289 289 290 290 290 289 288 288 288 289 289 290 288 288 289 289 289 288 289 290 288 289 290 289 289 289 289 288 288 287 284 282 280 281 281 282 282 282 281 279 279 279 278 279 280 280 283 283 283 284 284 284 283 283 283 283 283 282 282 282 282 282 282 281 280 280 280 283 282 281 281 283 284
282 282 283 279 280 280 284 284 285 285 285 287 288 289 289 288 288 288 288 289 289 288 288 288 289 290 290 289 288 287 288 289 290 289 287 288 288 288 287 286 287 288 287 285 282 281 280 281 280 280 280 280 278 279 279 278 277 278 279 281 282 284 284 284 283 283 282 282 282 282 282 282 281 281 281 281 281 279 278 277 279 284 284 283 283 284
Wind_Speed
0 2 2 3 4 5 4 6 1 4 4 2 1 1 3 4 2 4 4 2 1 1 4 7 7 8 9 9 8 7 6 6 6 7 7 6 7 7 7 7 8 8 9 6 9 11 11 11 10 8 8 7 7 7 9 10 10 10 11 10 11 8 8 8 8 8 8 7 5 3 6 6 5 4 4 4 4 6 5 5 5 5 6 5 7 9
1 0 4 4 3 2 2 4 3 2 4 1 2 3 4 2 1 2 2 0 4 2 2 3 5 8 8 6 6 6 6 11 11 10 9 10 8 7 8 9 10 9 3 5 5 5 6 7 8 8 8 8 11 10 10 11 11 10 9 11 10 8 9 9 9 8 7 6 6 6 6 6 5 4 6 5 5 5 5 5 5 5 6 7 7 9
1 4 4 5 3 4 5 4 5 4 2 2 1 2 1 3 3 3 4 1 0 1 6 5 6 10 9 7 6 8 11 12 12 10 10 8 7 8 8 9 10 7 7 6 6 6 7 7 7 7 7 7 8 8 9 7 7 8 9 9 8 9 9 7 7 7 7 4 5 6 4 7 3 1 2 2 3 5 5 5 5 4 5 7 7 9
2 4 10 2 4 5 3 3 1 1 0 1 2 1 2 1 1 1 1 1 2 2 3 5 7 12 15 11 13 16 13 13 12 9 7 7 8 6 8 7 6 8 8 8 8 8 7 8 8 7 8 8 6 6 5 7 9 8 7 7 8 8 6 6 5 6 5 5 4 4 3 5 4 3 3 3 3 4 5 5 4 3 4 4 6 7
4 1 2 4 3 1 3 1 2 2 2 4 3 1 2 1 1 1 2 2 2 1 4 6 8 8 10 10 5 8 12 11 13 8 7 8 7 8 6 5 6 7 6 7 7 7 8 8 9 10 7 6 7 7 8 8 9 8 9 8 7 7 7 5 5 6 6 5 6 6 6 5 6 4 3 3 3 4 4 4 4 5 2 3 6 7
4 1 1 4 1 1 2 3 3 3 3 2 6 7 5 2 3 4 4 4 2 2 1 0 6 5 1 5 8 1 2 3 4 6 8 9 9 7 7 9 7 6 5 5 6 10 10 11 7 5 7 7 7 8 8 8 8 7 7 7 6 7 7 7 6 6 7 7 7 7 7 7 6 6 6 9 10 7 7 6 3 3 2 3 5 6
1 1 0 4 4 3 1 2 4 3 2 1 1 5 3 1 4 2 3 2 2 0 1 1 0 9 3 8 6 5 5 6 3 6 9 9 9 7 9 7 7 6 5 4 3 6 8 7 7 6 7 8 8 6 5 6 6 6 7 7 7 8 7 7 7 7 7 6 6 8 7 6 8 8 6 3 3 6 4 5 5 4 3 2 6 6
3 2 5 1 4 4 2 1 1 5 2 2 1 2 1 3 3 2 1 1 3 1 3 6 5 6 9 9 7 13 15 9 6 6 9 10 8 8 7 8 6 5 5 5 5 5 8 8 10 10 8 7 8 6 6 6 6 7 8 7 7 7 7 6 7 7 8 7 6 7 7 6 6 6 5 5 4 4 5 5 5 5 4 3 3 6
2 5 4 3 2 3 5 1 2 5 2 1 1 3 3 4 4 1 1 1 2 3 7 4 3 2 6 3 7 10 8 7 9 8 8 8 6 6 3 4 5 5 5 6 5 5 5 8 7 7 7 6 6 7 7 7 7 6 7 8 7 8 8 7 8 8 8 7 7 7 7 7 6 5 5 5 5 6 5 6 5 5 4 4 3 4
3 1 1 4 5 4 3 1 4 3 3 2 2 2 4 3 2 3 1 1 3 2 8 5 5 3 14 7 5 6 7 7 8 7 10 8 7 4 7 5 5 4 4 3 4 3 4 5 6 6 7 6 6 6 6 6 6 6 7 8 8 7 7 7 8 8 8 8 7 8 9 8 7 6 5 6 6 6 6 6 6 5 5 5 4 4
1 3 4 1 2 1 4 3 3 5 3 5 3 5 2 1 2 1 1 1 2 4 7 10 9 3 7 8 7 7 7 9 6 6 7 3 4 5 5 6 5 4 4 4 4 4 4 4 5 6 7 6 5 5 6 6 7 6 7 8 9 8 7 9 8 8 8 8 8 9 9 9 8 7 7 7 6 6 6 7 6 6 6 5 5 4
1 1 0 0 1 4 4 4 5 2 1 2 1 1 1 1 3 1 0 2 2 7 1 6 9 8 4 5 6 3 3 8 10 8 5 4 4 5 3 4 4 5 5 5 5 4 5 4 4 4 6 6 6 6 7 6 6 6 6 7 8 7 7 7 8 8 8 8 9 9 9 9 7 9 8 9 9 9 9 8 7 5 5 5 5 3
2 2 2 2 5 3 3 6 4 3 1 1 3 3 5 2 1 2 1 1 4 7 1 2 4 3 14 10 3 0 1 5 4 3 2 1 3 5 5 5 5 5 5 5 5 5 5 6 7 6 6 6 7 8 7 7 6 6 6 7 8 7 7 7 8 9 8 9 9 10 10 8 7 8 9 8 8 8 8 8 8 8 7 5 6 6
2 2 5 3 4 4 3 8 2 1 3 4 7 7 5 2 2 4 3 3 2 2 2 1 5 5 10 7 6 7 6 6 6 5 1 0 2 2 5 5 5 5 6 6 6 6 6 7 6 6 7 7 7 7 7 7 7 5 6 6 7 7 7 6 8 9 9 9 9 9 9 8 7 8 8 7 8 8 7 7 8 9 9 9 9 9
3 4 5 5 3 5 4 5 10 6 8 8 2 8 8 6 4 4 4 5 6 3 0 3 2 8 2 3 3 2 2 5 6 5 3 4 5 5 3 6 6 6 6 5 6 7 7 7 7 8 7 7 7 7 7 7 6 6 6 6 7 7 7 7 8 7 8 8 9 8 7 6 5 7 7 6 6 7 7 7 7 7 7 9 9 10
11 5 2 11 0 12 10 3 5 5 2 3 3 1 3 8 0 3 1 0 1 1 2 2 6 2 4 2 2 1 2 3 3 6 7 6 6 2 3 5 7 7 7 6 6 6 7 7 7 7 7 7 6 7 7 7 7 7 7 7 8 8 8 8 7 7 8 7 8 9 9 8 5 5 6 5 5 6 7 8 8 8 8 7 8 7
2 4 0 3 5 13 8 4 2 7 4 5 4 6 6 1 1 1 2 2 2 2 10 3 7 8 4 13 13 15 13 10 6 7 6 6 6 5 6 8 6 6 7 7 7 7 7 6 6 7 7 6 7 7 8 8 8 9 8 8 8 7 6 7 6 7 7 7 8 9 10 9 6 7 7 7 6 7 6 7 7 7 7 7 7 7
6 2 2 2 4 1 0 2 1 3 0 7 3 5 2 2 2 3 4 1 2 6 8 5 9 12 1 13 1 7 7 9 7 6 6 6 6 7 10 8 7 8 6 7 8 7 7 7 7 6 6 7 8 8 8 9 8 8 8 9 9 8 9 7 7 7 7 8 9 8 9 9 8 7 7 6 7 6 6 5 6 6 6 8 8 8
4 2 2 2 3 3 4 1 1 2 4 2 5 1 5 2 3 2 2 6 5 4 5 5 5 8 10 15 5 2 4 6 7 8 8 8 8 9 9 9 10 3 4 5 6 6 5 6 7 7 7 6 7 7 8 8 9 8 8 9 9 10 10 9 7 6 6 7 7 7 9 9 8 7 6 6 6 6 7 7 7 7 7 6 6 8
2 5 1 2 2 0 1 3 9 5 1 0 2 1 1 1 2 6 6 1 3 7 2 12 2 11 6 7 4 9 7 10 10 8 9 11 9 9 8 9 8 5 6 6 6 6 6 7 7 8 8 8 9 8 8 9 8 10 9 9 8 7 7 8 8 8 9 8 7 6 6 7 8 7 7 7 7 7 7 8 8 7 7 7 6 7
2 3 5 1 4 2 2 5 9 9 9 1 1 2 0 1 1 3 3 4 4 2 4 3 10 10 7 6 6 8 8 10 12 11 9 7 8 8 9 8 5 6 6 7 8 7 7 6 6 6 6 6 5 6 7 8 10 9 8 9 9 10 9 9 9 9 9 8 9 8 8 8 8 8 7 7 7 7 7 7 7 7 6 6 6 6
2 3 7 3 0 5 7 7 10 12 16 13 14 13 14 9 4 3 8 1 1 3 3 2 12 14 8 5 5 2 2 4 9 10 8 7 7 8 6 6 6 5 5 5 5 5 5 5 5 5 5 5 5 6 8 7 7 8 10 10 10 9 9 9 9 9 8 8 8 9 9 9 8 8 7 8 7 7 6 6 6 6 6 7 6 7
9 3 4 6 9 10 5 0 3 0 3 5 8 10 10 8 5 5 7 4 1 4 2 3 3 21 2 2 2 1 4 2 5 7 6 7 7 6 5 3 2 4 6 6 6 6 5 5 5 6 7 7 8 8 7 7 8 8 7 8 9 10 10 9 9 7 8 8 8 9 8 8 8 8 9 9 7 7 7 6 6 6 7 7 7 6
3 1 1 3 2 2 3 0 1 1 1 1 5 1 4 8 7 6 5 4 5 2 5 5 6 17 4 2 2 2 3 3 2 2 5 3 2 3 5 4 4 3 3 5 5 5 5 5 5 5 6 7 7 8 9 8 7 7 7 8 7 10 10 9 8 8 8 7 7 7 7 8 8 10 10 10 9 9 8 7 7 7 7 7 7 8
3 2 5 2 0 0 1 2 2 2 1 1 1 3 3 2 5 4 1 1 3 7 9 7 13 16 1 3 2 1 2 2 4 3 1 2 3 4 3 3 4 5 4 5 6 6 5 5 8 8 7 7 8 8 8 9 9 8 8 7 9 8 8 8 8 8 8 8 9 8 8 9 9 10 10 10 9 11 9 9 8 8 9 8 8 7
6 6 8 7 10 10 7 8 9 6 8 3 2 5 8 8 5 6 7 5 9 10 14 7 10 18 8 4 1 1 2 4 5 4 2 2 5 4 2 3 4 6 7 6 5 6 10 9 6 6 7 8 9 10 9 8 8 8 7 8 7 8 8 9 8 9 9 9 10 9 10 9 9 11 11 11 10 10 10 10 9 9 8 9 9 9
3 4 10 12 13 14 12 3 4 9 4 6 8 11 7 10 11 6 3 6 14 14 11 9 15 20 18 6 1 4 3 5 5 5 5 5 6 5 3 4 5 5 6 8 8 7 2 2 9 9 8 10 10 9 8 8 8 8 8 8 8 8 8 8 9 9 10 10 10 10 11 11 10 9 10 10 10 9 9 10 10 10 10 9 10 10
2 4 11 13 15 15 10 3 5 16 14 15 15 12 15 13 13 15 12 16 15 5 14 15 12 11 25 17 9 8 5 6 6 5 6 5 5 6 8 4 4 5 5 3 3 6 9 10 6 7 10 10 10 8 7 6 7 8 9 9 8 7 8 8 9 10 10 10 10 11 11 11 9 9 9 8 8 9 9 9 9 10 9 9 10 10
5 7 7 10 13 15 12 6 8 8 11 12 14 14 15 15 12 14 19 22 13 12 18 16 6 15 22 20 6 12 11 10 8 9 8 8 6 5 4 5 8 8 6 4 5 7 7 8 10 11 10 10 7 7 7 7 8 7 7 8 8 8 9 8 9 10 10 10 12 12 10 9 9 8 9 9 9 9 9 9 9 9 9 10 10 9
2 5 5 6 9 10 11 12 8 9 5 5 10 13 15 17 19 21 22 22 20 15 14 18 19 18 19 21 7 7 10 8 8 5 2 2 4 6 6 8 7 7 7 6 8 9 9 11 11 11 10 6 7 8 8 9 10 10 10 9 9 9 8 8 10 10 10 12 12 10 9 9 8 9 9 10 10 9 9 9 9 9 9 10 10 10
5 6 9 3 3 8 13 11 7 8 8 10 7 9 14 17 20 23 20 18 14 15 18 21 20 20 21 19 11 10 10 6 7 9 10 8 5 5 6 7 8 9 7 7 8 9 10 12 12 10 7 9 11 12 12 11 10 9 9 9 9 10 9 8 9 10 11 13 10 9 9 9 10 10 12 12 10 9 10 10 9 10 10 10 10 10
4 3 3 2 6 10 14 12 7 2 3 6 10 13 16 18 18 12 12 10 12 16 18 16 15 19 23 13 10 12 7 9 12 13 11 9 7 6 8 10 9 7 7 8 9 10 11 10 10 10 10 11 12 11 10 10 10 8 11 11 10 10 8 9 10 12 12 11 9 10 11 10 10 11 12 11 12 11 9 9 9 9 9 9 9 9
3 3 4 4 8 12 17 6 1 5 2 10 17 23 23 14 10 8 11 16 20 17 13 12 19 19 20 14 6 9 10 9 12 12 10 8 6 7 9 11 9 8 9 9 9 9 9 9 11 12 12 11 11 12 14 15 10 12 14 12 13 8 10 12 12 11 11 10 10 11 11 10 12 12 11 12 11 10 10 11 11 11 10 11 10 8
1 3 4 2 7 8 15 3 4 4 11 16 19 16 10 16 15 16 17 17 14 11 12 14 16 14 12 13 12 13 16 13 12 14 12 10 6 5 9 10 8 8 8 7 7 7 8 9 9 10 11 12 13 14 14 12 14 15 12 10 7 10 12 12 11 11 11 10 11 11 11 11 11 12 12 10 10 10 11 12 13 12 10 9 9 10
3 3 5 3 3 7 3 6 4 15 15 14 7 4 6 6 10 17 21 19 14 12 12 15 15 18 20 17 15 13 12 14 11 13 17 7 1 5 9 10 12 11 8 9 9 8 8 8 8 8 7 8 10 10 7 7 11 10 6 8 10 10 11 10 11 10 11 11 10 9 11 12 12 11 10 10 10 10 11 12 11 11 10 10 11 11
7 8 4 3 3 1 1 6 8 7 2 5 7 9 8 7 8 6 9 12 16 16 13 14 18 19 18 18 15 13 14 14 13 16 16 9 4 9 14 14 11 8 11 11 9 7 6 7 7 7 8 6 5 4 5 9 7 6 9 6 9 9 10 10 10 11 9 10 10 11 11 11 11 10 9 10 10 11 12 11 11 11 9 9 8 7
9 4 4 4 5 7 6 11 12 6 13 10 9 5 4 5 5 9 12 15 15 13 14 16 18 18 16 14 14 14 11 9 13 17 5 3 6 9 11 9 9 10 8 7 6 7 5 5 5 3 2 2 3 4 6 6 5 7 6 7 8 9 8 9 10 11 12 10 9 10 10 11 11 10 10 10 11 12 11 11 10 8 7 8 8 9
10 11 6 7 4 7 7 8 4 5 10 13 12 3 4 8 9 9 10 12 10 11 12 14 17 18 15 12 13 12 6 6 14 10 0 2 4 5 4 6 4 4 4 4 4 3 4 4 3 2 1 1 1 4 4 4 5 6 6 7 7 8 9 9 12 12 10 9 9 9 9 10 10 11 11 11 12 12 10 8 7 9 8 10 10 10
12 11 7 9 4 6 8 7 6 6 7 6 1 1 3 9 11 6 5 11 11 9 6 10 10 8 10 11 12 8 3 8 12 10 4 3 4 2 2 4 2 0 1 1 1 3 4 4 2 2 1 1 4 4 4 5 6 6 7 8 8 8 9 11 13 11 11 10 9 9 9 9 9 10 11 12 11 10 11 11 10 8 7 8 7 8
12 10 7 10 9 8 7 7 8 4 7 6 4 2 1 1 4 6 8 8 9 3 9 10 10 9 9 8 6 5 6 7 12 6 0 3 2 2 2 5 7 7 6 4 3 2 3 5 5 5 5 6 6 3 4 5 5 6 8 8 6 7 11 13 10 5 5 5 7 8 9 8 10 10 11 11 9 8 9 7 7 8 8 7 7 7
8 6 10 14 12 12 13 8 3 5 5 6 4 2 1 2 5 8 12 5 2 5 2 4 8 10 9 8 5 6 8 8 3 1 2 2 4 6 5 3 3 3 5 5 5 4 4 4 3 5 6 5 4 2 3 4 5 7 7 6 6 11 11 5 4 5 5 5 6 7 8 8 9 10 9 9 10 9 8 8 9 8 9 9 7 7
8 8 5 9 11 10 11 12 10 7 6 8 3 7 2 3 3 11 5 1 5 1 0 1 2 2 1 1 1 3 4 5 7 2 1 1 1 4 5 6 7 7 5 2 3 3 5 5 5 5 6 4 2 2 4 4 5 6 6 6 10 10 4 4 6 6 7 7 8 8 8 8 7 9 10 8 9 9 9 7 8 9 9 8 8 9
10 8 8 12 7 5 4 8 7 10 5 9 8 0 0 4 7 5 2 0 0 2 1 1 1 3 0 4 2 2 5 6 5 6 6 5 2 3 5 6 6 6 8 8 8 5 2 6 7 7 7 5 2 2 3 4 6 6 5 9 9 4 4 4 5 6 6 6 7 7 8 8 9 8 7 8 8 9 8 8 8 7 7 8 7 8
4 7 4 7 7 8 10 9 9 7 3 7 13 8 7 13 2 3 2 0 0 1 2 1 3 4 3 4 5 4 3 3 5 4 5 6 5 4 2 4 5 6 7 6 4 5 3 5 5 7 6 4 2 2 2 4 6 6 7 10 3 4 4 5 5 5 6 6 6 6 6 7 7 7 7 8 8 8 8 8 7 7 7 7 7 7
5 7 1 4 4 8 6 6 2 0 3 6 5 3 4 10 8 2 1 1 2 3 4 1 4 4 4 3 2 2 4 5 6 5 4 6 6 7 6 5 5 6 6 6 9 6 3 5 7 6 6 5 3 3 4 4 6 6 8 4 4 4 5 5 5 6 6 5 6 6 6 7 7 8 8 8 9 9 8 8 8 8 7 8 7 7
2 3 1 2 5 5 7 2 1 1 2 2 4 3 2 2 4 0 3 4 4 2 2 3 4 1 3 3 3 4 6 6 6 7 6 6 7 7 6 5 5 5 5 5 6 7 6 5 5 5 8 6 4 4 3 4 4 7 6 1 3 4 5 6 6 6 6 5 6 6 7 8 6 7 7 8 7 8 8 10 9 8 8 8 7 7
2 0 2 2 3 3 4 5 11 11 6 3 4 4 4 4 3 3 5 2 4 4 4 3 2 2 3 4 5 7 8 6 6 8 8 7 8 7 6 7 6 6 6 6 8 6 5 5 6 8 7 9 2 3 3 4 4 4 2 2 2 3 4 5 6 6 6 7 7 6 8 9 7 6 6 6 6 5 6 6 7 7 7 8 8 7
2 1 2 1 2 5 5 5 6 5 2 1 1 1 1 3 6 4 1 1 3 4 3 5 2 5 2 4 7 6 9 7 6 9 8 7 8 7 7 7 8 6 5 6 6 5 5 5 7 9 8 9 5 3 3 3 3 2 2 1 2 2 4 4 5 7 7 8 7 7 7 7 10 10 7 7 8 7 6 6 7 8 9 9 9 9
1 4 2 1 1 4 6 6 6 5 6 6 5 4 2 2 2 4 5 4 3 4 7 6 4 6 5 8 6 5 7 10 7 7 8 9 8 8 8 8 7 6 6 5 5 5 7 6 8 9 7 9 4 3 4 3 3 2 3 2 2 3 4 4 4 5 6 7 7 7 7 7 8 7 7 7 6 5 6 8 8 7 6 5 6 8
3 5 3 3 4 5 4 3 2 3 4 7 9 9 6 2 2 5 5 6 5 5 6 6 8 5 5 7 7 7 9 11 10 6 8 9 9 8 7 8 7 7 7 5 3 4 5 6 7 7 8 7 4 4 4 4 3 3 3 4 4 4 4 3 3 3 5 5 6 6 7 6 6 6 7 7 6 6 4 5 4 3 5 5 6 7
5 2 1 3 3 5 3 5 3 3 5 7 8 8 6 5 4 5 5 6 7 5 5 5 7 9 8 8 5 5 8 9 12 8 6 7 8 6 5 6 8 8 9 6 5 6 6 7 6 6 7 6 4 4 5 4 4 4 4 5 5 6 6 6 5 4 4 4 4 5 5 6 6 6 6 6 7 6 7 5 6 5 7 5 6 8
Wind_Direction
42 140 177 195 209 194 203 224 215 66 28 356 4 27 344 16 11 84 89 53 5 5 243 232 246 252 257 260 268 270 268 259 251 244 241 229 222 222 224 231 233 227 225 204 195 186 184 176 173 165 166 169 170 177 179 174 174 176 165 164 176 175 167 161 159 167 167 166 160 168 198 199 193 165 150 151 137 140 154 184 220 196 190 181 163 159
24 231 224 228 222 9 197 177 70 59 29 22 15 9 318 129 330 49 122 174 17 65 294 305 290 271 265 258 258 258 263 260 248 245 245 244 232 222 218 230 232 233 230 197 202 173 158 157 159 157 163 166 172 189 183 184 179 176 165 172 173 174 176 177 173 168 172 175 178 172 190 190 187 168 164 168 153 149 150 173 203 199 183 182 171 163
86 196 235 221 116 94 47 45 61 28 351 76 1 358 27 296 123 70 69 1 124 96 263 275 287 281 271 259 258 248 242 251 248 232 236 237 241 232 220 225 229 223 223 194 189 157 156 151 154 160 171 185 185 180 183 179 166 173 172 176 172 179 178 180 166 159 170 165 166 171 172 192 178 72 86 114 134 135 149 176 190 196 193 177 172 168
177 229 241 88 111 99 59 76 53 153 70 310 154 138 218 206 72 294 7 4 235 200 285 324 305 280 277 260 244 243 241 246 254 250 244 230 236 237 230 218 211 215 209 195 184 179 166 162 165 169 179 184 173 171 175 175 175 178 176 179 173 177 169 166 164 148 150 157 151 141 173 161 133 153 109 97 95 115 135 162 172 191 202 177 165 163
196 54 35 105 88 117 131 126 129 123 242 207 215 226 238 222 157 89 149 237 210 236 31 318 295 271 255 268 270 247 231 237 256 271 268 255 241 239 243 250 222 217 203 199 191 177 162 167 184 185 177 163 176 179 181 179 179 183 184 178 168 162 162 160 156 153 143 118 100 100 81 85 85 73 128 130 156 164 157 139 174 184 181 169 163 165
211 231 254 105 111 93 128 147 197 157 254 245 204 189 212 284 357 44 31 20 346 297 249 29 347 299 297 224 239 274 89 221 246 232 246 247 247 245 245 240 243 240 222 195 188 178 175 183 177 166 169 173 183 186 188 181 180 169 172 168 160 149 152 160 164 158 136 151 150 143 150 163 178 185 185 194 190 177 179 177 142 126 171 173 162 167
189 312 248 143 135 127 214 192 198 156 216 25 297 354 9 313 67 70 13 53 337 297 240 230 20 274 319 293 279 289 269 247 238 208 237 242 244 234 230 229 227 215 219 206 190 141 168 175 164 174 176 180 184 194 172 172 174 160 162 163 166 152 154 160 165 157 151 156 166 177 182 188 195 197 203 183 149 160 151 139 159 156 150 175 164 168
96 173 71 107 110 129 151 171 190 154 150 245 315 310 33 91 87 84 82 149 235 315 273 176 178 260 286 258 235 244 249 247 243 223 233 240 236 227 213 211 201 186 168 166 181 175 164 166 169 178 182 179 184 175 167 167 169 162 163 162 163 146 153 165 167 157 166 165 174 185 194 196 201 208 184 170 148 131 134 145 151 155 161 162 167 163
141 160 149 147 158 145 182 196 184 159 151 188 242 317 76 70 93 49 109 334 270 13 292 179 154 315 251 250 209 215 233 229 231 239 262 257 241 226 198 130 126 121 132 149 157 175 157 163 168 167 170 177 169 171 170 168 170 162 158 160 160 154 157 169 167 155 170 169 178 188 195 202 203 196 166 147 142 142 146 139 139 156 159 159 157 171
4 152 192 161 148 186 92 20 350 160 141 253 202 78 89 74 51 83 17 59 327 26 273 159 181 206 283 243 234 204 206 203 219 223 237 249 230 170 113 118 113 110 94 84 122 120 117 139 154 155 153 159 174 169 158 157 159 163 156 164 168 164 160 158 158 159 170 174 177 193 199 202 195 188 160 149 154 153 156 151 155 155 162 162 157 169
97 193 183 59 185 92 123 55 44 46 84 144 171 84 48 48 85 1 74 75 28 258 253 162 194 180 287 289 198 158 199 188 182 238 251 220 107 103 129 145 157 149 134 128 107 99 89 91 123 127 150 163 157 156 155 161 168 168 164 169 175 173 161 156 164 162 174 181 189 197 200 198 193 174 157 153 158 152 161 164 160 165 163 159 162 160
128 39 141 72 323 126 107 68 20 12 98 128 110 123 81 359 36 38 354 48 129 262 354 179 173 186 206 305 9 50 146 158 169 209 208 189 145 140 150 149 154 149 148 145 137 136 121 108 117 137 151 163 163 158 164 170 168 171 169 171 173 174 168 157 159 166 179 187 197 199 201 201 186 167 168 172 172 172 174 169 163 157 144 157 155 164
209 219 125 43 313 148 131 87 6 18 352 65 125 103 111 237 56 314 72 286 193 239 258 322 189 281 237 238 45 70 244 191 204 206 179 123 130 180 185 177 165 158 147 161 172 165 164 169 170 179 177 167 173 179 173 172 170 170 172 173 174 182 175 167 161 172 182 193 200 201 202 207 187 177 174 176 173 174 176 172 162 162 168 160 166 186
268 99 143 108 34 263 173 130 149 32 243 192 159 151 117 202 197 244 220 205 253 268 300 5 359 245 266 298 234 232 199 224 224 261 329 102 250 198 181 173 171 180 177 181 178 178 181 181 184 185 183 180 180 178 173 169 171 173 173 174 178 185 178 175 165 173 184 196 200 202 200 207 195 186 178 178 174 178 178 176 176 176 173 178 187 179
206 303 238 126 253 167 206 200 174 163 172 203 185 158 173 161 174 208 175 205 218 216 257 301 82 238 92 249 311 248 247 237 239 236 222 213 221 228 163 174 181 185 197 185 179 183 183 187 183 186 188 186 181 175 174 171 171 169 176 175 180 186 188 183 176 175 185 192 195 199 197 201 187 180 180 178 172 174 176 179 181 187 179 181 185 186
208 214 240 179 186 157 185 218 166 112 122 220 218 254 266 224 100 203 183 186 291 4 320 232 212 231 184 269 243 27 25 314 283 261 247 245 251 236 227 206 205 200 193 191 187 190 195 190 186 183 185 185 178 176 175 174 171 173 181 183 187 187 190 193 178 183 183 194 194 196 199 203 182 174 171 168 170 177 178 179 182 187 188 188 179 177
97 227 354 15 139 173 192 167 204 144 179 211 131 220 198 340 131 324 359 47 94 40 257 165 288 262 304 270 247 249 240 235 238 240 256 252 248 250 249 245 228 214 199 191 192 196 199 188 187 181 179 178 176 177 180 178 177 177 178 185 191 193 192 195 187 180 184 192 195 198 194 196 182 179 180 180 177 175 174 176 183 188 193 183 179 174
136 208 321 86 180 327 320 302 26 37 73 102 191 228 85 44 98 145 213 41 171 216 261 125 236 281 41 289 207 211 230 234 226 236 228 232 236 240 243 250 245 238 207 190 195 203 196 188 181 177 176 178 180 181 176 179 177 181 180 182 187 190 193 199 183 179 183 194 199 198 194 193 187 181 182 179 177 174 172 171 171 169 166 181 183 176
157 237 256 3 350 350 348 12 353 19 39 116 178 315 136 249 267 255 91 252 247 240 278 250 234 262 226 250 301 313 200 227 225 221 224 230 229 234 247 257 255 226 163 174 193 190 186 180 182 179 179 182 180 179 178 175 176 180 184 185 187 192 193 192 185 177 185 193 201 198 195 191 189 184 181 182 172 168 178 179 175 172 171 159 163 162
120 200 308 330 1 139 57 142 198 203 345 44 10 357 146 104 182 160 194 192 129 241 217 277 287 262 204 244 199 249 210 209 209 217 223 221 218 228 240 244 249 188 186 187 190 191 189 183 180 179 179 182 181 180 177 177 179 186 185 182 188 191 190 190 183 175 185 193 197 190 184 187 187 186 183 176 172 174 180 181 177 173 166 166 163 165
279 148 239 253 306 86 197 203 214 159 153 236 205 252 214 158 263 113 298 177 173 201 211 275 288 261 244 200 226 223 225 207 195 205 221 213 221 223 227 236 224 194 189 196 189 185 184 186 177 177 178 183 182 180 178 181 188 190 184 186 185 189 192 194 190 179 185 182 195 184 184 183 182 186 179 172 179 180 182 180 177 175 169 144 165 157
196 144 196 122 11 231 231 197 198 179 184 181 186 204 195 171 180 185 258 151 176 190 227 217 261 277 260 170 217 215 230 200 192 187 196 205 214 227 238 231 192 188 210 190 181 167 176 172 166 166 168 175 178 189 191 188 183 195 199 190 184 187 194 192 193 185 180 182 185 191 187 185 181 178 178 178 179 183 177 175 177 170 149 165 166 166
181 164 149 181 208 209 206 279 206 97 216 224 195 224 200 201 180 158 213 245 85 255 262 205 279 265 229 100 105 63 59 60 154 155 182 194 215 225 228 200 169 170 182 174 159 164 171 172 174 175 179 184 191 199 195 190 190 198 209 199 191 188 194 190 192 179 177 181 186 192 189 182 180 177 181 180 180 182 177 173 172 167 169 168 163 170
131 116 148 259 109 47 35 136 31 131 104 323 268 327 147 205 194 187 188 184 176 182 210 237 232 263 287 73 102 94 104 95 48 161 169 164 194 197 197 181 153 124 148 140 136 150 165 161 166 171 186 194 198 200 201 199 193 196 204 209 201 198 191 186 184 173 171 174 185 186 185 190 184 180 181 183 183 183 179 175 174 171 176 175 164 170
167 216 171 150 263 122 6 354 331 4 33 220 221 198 217 279 183 196 166 18 244 202 204 159 239 255 304 344 359 102 111 155 189 252 202 229 272 235 224 196 165 175 162 150 156 165 160 166 186 191 192 199 204 206 203 203 198 192 203 207 212 205 190 186 180 172 173 172 180 187 191 194 189 188 186 186 183 186 179 179 174 176 178 169 171 173
175 165 169 181 202 211 221 204 203 203 212 227 230 211 195 198 195 118 212 183 229 239 227 214 249 258 245 30 27 3 244 234 243 228 247 215 235 258 239 213 213 180 188 181 166 172 197 202 193 193 198 204 209 206 202 207 205 195 196 211 213 207 192 189 176 171 171 177 180 190 195 198 196 194 189 188 187 185 182 180 179 178 182 176 175 174
175 187 187 192 202 220 229 222 171 135 99 187 222 201 207 203 204 193 157 194 217 232 241 231 236 260 268 250 352 267 287 238 233 245 237 251 263 269 275 234 220 222 200 191 193 199 196 220 218 213 203 207 208 205 201 203 209 199 194 206 211 212 198 188 175 173 175 181 188 192 198 195 198 196 194 191 187 182 180 180 180 180 184 180 179 179
83 194 206 209 218 229 230 187 190 152 176 201 203 206 206 202 199 201 201 224 218 225 253 238 231 254 264 254 239 258 256 267 257 246 241 248 244 228 234 249 254 236 233 214 197 201 217 227 222 222 222 214 212 206 201 209 218 211 198 202 204 208 203 192 177 178 179 182 194 201 199 196 189 193 194 191 188 186 183 178 178 182 181 179 184 186
145 202 219 213 230 238 239 227 160 185 181 190 201 198 202 209 204 205 221 231 217 208 235 250 206 234 256 264 212 240 243 227 224 234 227 214 214 211 183 207 228 235 247 225 232 231 231 232 230 230 225 222 210 209 209 207 219 219 211 202 198 200 208 191 180 183 182 186 198 204 194 188 186 183 185 185 189 190 186 182 181 181 180 183 188 188
133 234 219 213 238 245 249 242 223 211 225 197 197 203 201 199 207 210 221 227 225 230 241 254 253 244 254 265 238 223 246 236 241 238 266 260 230 198 201 222 233 241 242 243 241 237 233 235 235 232 227 220 211 217 215 212 214 216 213 210 198 199 207 185 194 186 188 195 202 194 188 187 184 183 179 183 189 189 185 184 183 182 185 187 188 187
153 225 211 225 255 254 250 251 244 246 250 251 234 216 208 210 213 213 219 229 234 244 243 249 257 263 255 254 271 257 266 287 287 283 279 269 251 239 239 245 247 246 249 247 246 244 240 238 238 239 222 212 211 215 217 217 215 213 216 216 202 202 197 187 198 197 196 203 197 187 184 184 187 180 186 188 183 184 181 182 181 184 188 188 187 186
155 260 53 97 236 256 256 246 245 278 270 260 257 247 237 223 221 219 223 220 221 228 233 242 252 255 260 258 254 270 271 274 275 272 269 270 263 235 237 243 247 253 255 247 242 242 244 244 242 239 231 222 219 216 214 218 220 207 217 214 208 205 181 194 204 203 206 203 189 187 186 186 182 186 191 184 188 183 180 177 179 186 188 188 189 190
172 153 207 180 226 243 256 260 272 179 225 260 249 240 233 238 244 232 225 220 221 220 229 229 239 245 258 269 270 271 269 258 264 272 274 268 243 231 246 257 258 260 260 260 249 242 241 240 238 234 230 225 220 215 215 211 201 207 215 207 209 179 187 202 205 207 208 202 191 191 188 184 187 191 190 192 185 181 179 181 183 187 187 190 188 181
115 166 216 145 226 240 259 265 124 171 222 231 237 243 231 232 227 235 239 233 230 211 224 229 247 258 266 268 253 251 259 260 259 266 260 260 262 238 252 257 260 258 264 261 255 249 246 244 243 235 226 222 221 217 219 197 202 214 211 203 184 186 201 200 206 205 209 202 197 192 188 190 190 193 193 184 183 182 184 186 191 189 186 182 181 186
176 166 216 156 178 230 264 88 198 225 233 243 282 326 244 245 226 231 241 244 242 231 236 248 255 256 253 256 261 266 273 278 279 279 281 275 1 270 261 267 270 275 269 268 268 263 260 256 258 259 256 244 230 227 201 199 208 212 188 187 194 198 199 202 204 207 208 206 200 189 190 192 193 195 189 184 183 185 190 192 191 187 186 183 184 184
184 190 162 210 165 17 247 188 231 223 235 324 288 253 245 236 239 261 271 256 249 245 235 238 241 250 258 264 271 274 274 285 286 274 271 289 248 251 270 271 276 269 267 267 274 279 268 266 261 262 262 262 269 243 191 213 204 190 206 186 194 197 202 200 204 210 208 208 199 195 192 189 193 192 185 184 185 188 193 193 192 187 182 181 184 187
174 160 174 221 176 216 206 223 240 342 311 286 276 255 171 178 173 194 240 248 239 236 237 242 250 255 260 267 271 275 281 288 284 280 312 206 231 240 250 263 257 263 269 285 290 287 288 284 292 281 262 271 221 201 215 209 175 191 189 186 203 199 202 198 207 212 211 208 199 196 190 189 189 188 186 185 186 192 192 189 188 185 177 180 182 183
165 182 185 198 227 198 221 247 245 217 238 253 247 255 169 182 181 190 205 260 257 234 225 232 242 249 256 263 265 267 275 293 278 283 81 182 236 287 305 280 303 304 300 294 321 328 327 327 339 337 8 316 238 228 212 175 172 176 188 201 202 199 204 202 215 213 208 204 199 194 189 188 185 186 186 186 192 191 186 180 179 183 178 181 181 188
190 190 172 192 203 153 210 229 230 230 244 236 273 211 228 175 187 175 167 246 251 236 215 233 243 244 240 237 248 252 251 259 263 270 261 296 324 313 315 303 301 274 324 23 18 330 323 325 337 315 341 309 263 251 178 173 170 176 202 206 206 203 205 213 218 208 203 202 194 189 184 182 182 184 185 190 191 184 181 181 182 174 173 183 178 183
189 196 181 209 210 203 203 221 227 206 251 253 227 253 255 346 111 96 210 239 248 132 199 216 225 233 241 242 234 224 201 244 259 276 259 282 296 315 310 325 333 332 323 323 341 4 331 323 339 326 306 281 268 240 187 171 171 194 206 215 203 207 217 221 222 210 206 194 185 182 181 178 179 182 183 184 176 177 179 167 164 170 174 176 176 177
188 194 190 206 212 217 221 242 262 270 260 231 188 224 205 130 116 172 224 243 217 195 240 191 212 221 231 243 218 232 228 217 248 162 244 293 339 324 316 305 281 275 289 309 303 336 335 311 288 276 278 277 275 243 188 172 185 214 221 210 203 222 225 216 179 186 189 180 180 182 181 176 174 171 174 173 175 172 168 169 170 165 171 174 175 174
197 193 204 204 216 219 216 224 231 268 237 203 215 168 189 95 222 221 235 206 152 175 267 134 228 271 66 216 197 216 260 302 312 322 7 300 275 271 280 297 317 321 303 264 274 336 330 324 310 296 295 288 274 209 186 180 208 230 224 215 227 231 194 171 178 173 174 178 181 181 177 168 167 166 167 166 161 168 172 170 166 170 171 174 175 178
180 184 183 195 204 228 192 223 222 237 260 140 126 8 322 189 239 207 179 320 173 168 138 294 220 267 154 297 250 253 298 313 318 308 308 304 316 305 302 312 313 305 310 321 323 317 322 313 307 299 289 287 265 224 203 186 225 235 228 228 237 202 174 172 166 168 169 166 165 173 171 165 161 157 152 159 163 163 165 161 163 165 165 167 169 173
192 193 181 219 183 204 196 211 215 219 202 172 156 198 190 213 186 129 133 333 345 167 167 197 257 227 216 213 263 288 270 282 306 290 305 307 304 297 281 283 297 303 303 291 265 286 298 280 280 288 290 276 255 236 223 203 241 242 236 244 214 165 157 155 153 149 154 161 159 157 157 151 149 143 148 153 154 158 157 160 159 156 164 164 164 167
207 198 175 213 192 197 203 223 281 234 180 215 196 186 202 221 244 224 276 219 166 266 207 212 242 231 190 179 207 216 299 272 250 255 260 272 281 283 279 257 244 252 261 277 290 290 276 257 273 279 281 262 240 237 235 226 238 256 248 250 166 161 157 156 153 152 155 153 150 147 142 140 146 149 151 156 155 157 159 156 155 158 164 161 167 171
343 282 80 111 289 320 298 234 243 6 331 303 299 277 297 316 337 167 226 275 258 229 185 234 300 199 204 186 201 256 224 252 277 287 272 271 271 273 269 272 264 258 262 274 284 282 269 271 272 275 277 275 230 231 225 230 218 244 254 230 181 168 157 153 151 157 152 143 141 142 140 139 139 143 150 154 161 163 164 162 165 165 166 167 174 177
285 148 93 169 242 45 282 246 244 257 263 245 260 294 308 308 294 32 18 4 318 359 354 335 315 289 214 199 214 243 259 247 257 269 272 275 277 275 275 268 263 242 241 249 252 268 283 276 282 277 272 279 254 221 236 222 227 230 251 208 198 162 151 150 154 151 148 145 141 141 145 144 145 141 143 147 143 146 151 157 163 163 164 172 176 178
267 116 64 261 209 201 238 309 312 298 276 300 89 46 0 322 344 355 327 244 288 298 275 263 258 280 223 240 241 253 269 269 251 264 275 276 276 280 279 277 279 286 257 235 250 238 256 265 265 274 278 273 268 220 221 210 217 218 197 198 171 157 151 159 162 159 160 154 150 152 154 152 149 149 153 157 156 154 155 164 170 171 176 178 180 177
285 13 203 244 263 291 314 310 293 325 329 319 351 12 14 340 315 294 290 280 250 265 284 286 236 242 254 255 261 251 267 270 253 251 269 276 276 276 275 272 271 272 281 277 255 220 228 241 251 256 263 268 253 209 199 204 198 180 166 169 171 169 167 181 172 162 160 157 153 155 157 151 155 155 152 153 154 156 164 171 175 177 183 197 188 185
131 239 214 265 288 269 215 251 40 40 303 314 318 308 314 312 346 305 301 310 289 273 275 285 295 266 237 249 250 248 254 267 272 248 247 256 258 263 274 282 287 291 290 276 251 237 244 247 247 253 250 251 219 195 200 200 182 160 161 156 165 171 174 177 166 161 165 161 156 152 149 147 149 146 148 150 147 135 87 61 117 155 166 174 174 177
218 213 263 199 227 262 312 291 336 286 276 266 272 289 302 318 341 326 300 288 293 283 267 276 292 300 291 272 250 239 253 262 273 282 279 269 272 269 268 275 286 289 287 296 296 276 252 255 248 250 251 242 206 200 192 185 177 166 161 158 164 169 171 162 163 164 160 158 160 155 147 144 145 144 142 142 139 131 130 105 51 84 130 128 146 168